Orbital Elements at Epoch 2459000.5 (2020-May-31.0) TDB
Reference: JPL 17 (heliocentric ecliptic J2000)
Element | Value | Uncertainty (1-sigma) | Units |
e | .1887311668344533 | 7.1065e-08 | |
a | 2.60455959973039 | 1.3241e-08 | au |
q | 2.112998027383397 | 1.8132e-07 | au |
i | 8.807290073307543 | 5.4836e-06 | deg |
node | 66.6247283216552 | 2.7048e-05 | deg |
peri | 345.2430592505475 | 2.9111e-05 | deg |
M | 138.598813387577 | 1.0268e-05 | deg |
tp | 2458409.405541521664 (2018-Oct-17.90554152) | 4.2572e-05 | TDB |
period | 1535.32342630629 4.20 | 1.1708e-05 3.205e-08 | d yr |
n | .2344782824463864 | 1.788e-09 | deg/d |
Q | 3.096121172077384 | 1.574e-08 | au |
|
| | Orbit Determination Parameters
Additional Information
|